Weather reports worldwide

Advertisment
Javea, Spain (8370): temperature & dewpoint: 08.11.2018 13:00:00 - 14.11.2018 13:00:00 (CET)Javea, Spain (8370): wind speed & gusts: 08.11.2018 13:00:00 - 14.11.2018 13:00:00 (CET)Javea, Spain (8370): wind direction: 08.11.2018 13:00:00 - 14.11.2018 13:00:00 (CET)Javea, Spain (8370): reduced air pressure: 08.11.2018 13:00:00 - 14.11.2018 13:00:00 (CET)Javea, Spain (8370): visibility: 08.11.2018 13:00:00 - 14.11.2018 13:00:00 (CET)Javea, Spain (8370): sunshine duration: 08.11.2018 13:00:00 - 14.11.2018 13:00:00 (CET)Javea, Spain (8370): precipitation: 08.11.2018 13:00:00 - 14.11.2018 13:00:00 (CET)
Date & Time tt [°C] td [°C] ff [km/h] ff [kn] fx [km/h] fx [kn] dd ppp [hPa] vv [km] sd [min] rr [mm]
14.11.2018 13:00:00 - - - - - - - - - - -
14.11.2018 12:00:00 19,8 14,8 12 7 25 13 N 1023,7 11 8 0,0
14.11.2018 11:00:00 18,7 15,0 14 7 30 16 N 1024,1 11 18 0,0
14.11.2018 10:00:00 18,4 14,9 16 9 26 14 N 1024,2 11 37 0,0
14.11.2018 09:00:00 17,9 15,2 15 8 25 14 N 1024,1 9 4 0,0
14.11.2018 08:00:00 17,1 14,9 10 5 28 15 N 1024,0 9 0 0,0
14.11.2018 07:00:00 16,9 14,9 13 7 23 12 N 1023,6 8 0 -
14.11.2018 06:00:00 16,7 14,9 3 2 19 11 NNW 1024,0 8 0 0,0
14.11.2018 05:00:00 17,0 15,0 9 5 19 10 N 1024,3 8 0 0,0
14.11.2018 04:00:00 17,3 15,1 9 5 19 10 N 1024,4 8 0 0,0
14.11.2018 03:00:00 17,4 15,3 6 4 23 13 N 1024,7 8 0 0,0
14.11.2018 02:00:00 17,5 15,5 14 8 26 14 N 1024,9 7 0 0,0
14.11.2018 01:00:00 17,7 15,5 13 7 27 14 N 1025,2 7 0 -
14.11.2018 00:00:00 17,7 15,5 13 7 29 16 N 1025,2 8 0 0,0
13.11.2018 23:00:00 17,8 15,6 16 8 30 16 N 1025,3 7 0 0,0
13.11.2018 22:00:00 17,8 15,4 15 8 33 18 N 1025,3 8 0 0,0
13.11.2018 21:00:00 17,7 15,3 18 10 35 19 N 1024,9 8 0 0,0
13.11.2018 20:00:00 17,8 15,6 16 9 32 18 N 1025,1 8 0 0,0
13.11.2018 19:00:00 17,7 15,3 17 9 29 16 NNW 1024,9 9 0 -
13.11.2018 18:00:00 17,9 15,2 17 9 31 17 N 1024,5 9 0 0,0
13.11.2018 17:00:00 18,3 15,3 14 7 32 17 N 1024,2 9 0 0,0
13.11.2018 16:00:00 18,8 15,7 13 7 26 14 N 1024,0 10 0 0,0
13.11.2018 15:00:00 19,1 15,3 12 7 26 14 N 1023,8 13 3 0,0
13.11.2018 14:00:00 19,9 15,3 14 8 31 17 N 1023,8 12 38 0,0
13.11.2018 13:00:00 20,5 15,3 15 8 34 19 N 1024,2 11 21 -
13.11.2018 12:00:00 19,6 15,3 17 9 35 19 NNW 1024,2 10 0 0,0
13.11.2018 11:00:00 18,8 15,1 21 11 36 19 NNW 1024,0 12 0 0,0
13.11.2018 10:00:00 18,4 15,3 21 12 34 18 N 1023,6 10 0 0,0
13.11.2018 09:00:00 17,6 14,5 21 12 39 21 NNW 1023,1 10 0 0,0
13.11.2018 08:00:00 17,3 14,7 22 12 40 22 NNW 1022,1 9 0 0,0
13.11.2018 07:00:00 17,1 14,7 22 12 38 21 NNW 1021,5 10 0 -
13.11.2018 06:00:00 17,0 14,8 20 11 35 19 NW 1021,3 9 0 0,0
13.11.2018 05:00:00 17,1 14,9 20 11 34 18 NNW 1020,8 9 0 0,0
13.11.2018 04:00:00 17,1 14,9 20 11 38 21 NNW 1020,8 9 0 0,0
13.11.2018 03:00:00 17,2 15,0 21 12 37 20 NNW 1020,5 9 0 0,0
13.11.2018 02:00:00 17,3 15,1 16 9 31 17 NNW 1020,5 10 0 0,0
13.11.2018 01:00:00 17,2 14,8 17 9 30 16 NNW 1020,2 11 0 -
13.11.2018 00:00:00 17,1 14,7 14 7 27 15 NW 1019,8 11 0 0,0
12.11.2018 23:00:00 17,6 13,4 16 8 29 16 NW 1019,1 13 0 0,0
12.11.2018 22:00:00 17,5 13,9 10 5 23 12 W 1019,5 12 0 0,0
12.11.2018 21:00:00 17,3 14,4 10 5 23 12 WNW 1019,2 12 0 0,0
12.11.2018 20:00:00 17,7 15,7 13 7 26 14 N 1019,0 9 0 0,0
12.11.2018 19:00:00 17,9 15,7 16 9 26 14 N 1018,5 9 0 -
12.11.2018 18:00:00 18,3 15,5 13 7 28 15 N 1017,8 9 0 0,0
12.11.2018 17:00:00 18,6 15,4 16 8 28 15 N 1017,4 10 0 0,0
12.11.2018 16:00:00 19,2 15,3 19 10 34 18 N 1016,9 10 42 0,0
12.11.2018 15:00:00 21,1 14,7 18 10 36 19 NW 1016,7 12 60 0,0
12.11.2018 14:00:00 20,1 14,4 19 10 37 20 NNW 1016,7 10 57 0,0
12.11.2018 13:00:00 20,2 14,3 17 9 35 19 NW 1016,9 12 60 -
12.11.2018 12:00:00 20,2 14,1 19 11 35 19 NW 1017,3 11 60 0,0
12.11.2018 11:00:00 19,8 13,3 22 12 36 20 NW 1017,2 13 60 0,0
12.11.2018 10:00:00 18,7 12,8 14 7 30 16 NW 1016,7 16 60 0,0
12.11.2018 09:00:00 16,4 12,5 11 6 35 19 W 1016,4 12 35 0,0
12.11.2018 08:00:00 15,0 13,2 16 9 28 15 NNW 1015,8 13 0 0,0
12.11.2018 07:00:00 12,7 11,8 3 2 12 6 WSW 1015,6 10 0 -
12.11.2018 06:00:00 12,5 11,6 5 3 12 6 SSW 1015,0 11 0 0,0
12.11.2018 05:00:00 11,5 10,4 8 5 11 6 WSW 1014,7 11 0 0,0
12.11.2018 04:00:00 11,4 10,2 6 3 10 6 WSW 1014,7 7 0 0,0
12.11.2018 03:00:00 12,0 10,5 7 4 9 5 SW 1014,3 7 0 0,0
12.11.2018 02:00:00 13,3 11,6 4 2 10 5 SW 1014,8 11 0 0,0
12.11.2018 01:00:00 15,5 13,6 6 3 18 10 SW 1015,2 11 0 -
12.11.2018 00:00:00 16,1 13,9 9 5 19 10 S 1015,5 14 0 0,0
11.11.2018 23:00:00 15,6 13,3 4 2 21 11 S 1015,1 13 0 0,0
11.11.2018 22:00:00 16,3 13,9 8 4 20 11 S 1015,1 13 0 0,0
11.11.2018 21:00:00 16,4 13,7 8 4 22 12 S 1015,0 12 0 0,0
11.11.2018 20:00:00 17,0 13,9 7 4 26 14 S 1014,7 13 0 0,0
11.11.2018 19:00:00 17,3 14,2 14 8 33 18 SSW 1014,4 13 0 -
11.11.2018 18:00:00 17,7 14,4 10 5 29 15 SSW 1014,1 12 24 0,0
11.11.2018 17:00:00 19,9 14,2 14 8 31 17 SSW 1014,5 12 60 0,0
11.11.2018 16:00:00 22,4 13,8 10 6 28 15 S 1014,8 14 60 0,0
11.11.2018 15:00:00 23,3 11,7 12 7 29 16 SSW 1014,7 16 60 0,0
11.11.2018 14:00:00 24,5 9,7 15 8 27 14 SSW 1015,1 17 60 0,0
11.11.2018 13:00:00 24,0 10,6 12 6 22 12 SSW 1015,8 17 60 -
11.11.2018 12:00:00 22,7 11,1 11 6 21 12 SSW 1017,2 20 60 0,0
11.11.2018 11:00:00 22,2 13,3 9 5 18 10 S 1017,6 17 60 0,0
11.11.2018 10:00:00 19,8 13,1 3 2 11 6 W 1017,5 17 60 0,0
11.11.2018 09:00:00 15,1 11,4 5 3 13 7 WSW 1017,2 15 26 0,0
11.11.2018 08:00:00 11,3 9,4 9 5 16 9 WSW 1016,6 17 0 0,0
11.11.2018 07:00:00 10,4 9,0 8 4 13 7 WSW 1016,2 17 0 -
11.11.2018 06:00:00 10,7 8,9 5 3 14 8 WSW 1016,3 17 0 0,0
11.11.2018 05:00:00 10,4 8,7 10 5 12 7 WSW 1016,1 16 0 0,0
11.11.2018 04:00:00 10,9 9,0 6 4 12 6 WSW 1016,3 16 0 0,0
11.11.2018 03:00:00 10,9 8,7 4 2 13 7 S 1016,7 14 0 0,0
11.11.2018 02:00:00 11,8 9,2 7 4 16 8 WSW 1016,6 14 0 0,0
11.11.2018 01:00:00 12,4 10,2 10 6 14 7 WSW 1016,7 13 0 -
11.11.2018 00:00:00 13,5 10,5 5 3 16 9 SW 1016,6 13 0 0,0
10.11.2018 23:00:00 14,0 11,3 9 5 16 9 WSW 1016,7 12 0 0,0
10.11.2018 22:00:00 14,3 10,8 9 5 15 8 WSW 1016,4 13 0 0,0
10.11.2018 21:00:00 16,9 11,3 8 5 22 12 W 1016,3 15 0 0,0
10.11.2018 20:00:00 15,7 11,1 6 3 13 7 NW 1015,8 12 0 0,0
10.11.2018 19:00:00 17,4 11,9 10 5 23 12 WSW 1015,7 14 0 -
10.11.2018 18:00:00 17,7 10,8 10 5 22 12 WSW 1015,2 16 6 0,0
10.11.2018 17:00:00 19,8 11,0 5 3 14 8 SSW 1014,9 17 51 0,0
10.11.2018 16:00:00 21,1 9,3 9 5 17 9 E 1015,2 20 60 0,0
10.11.2018 15:00:00 21,1 9,9 8 5 16 9 ENE 1015,3 15 60 0,0
10.11.2018 14:00:00 21,2 8,5 6 4 14 8 E 1015,2 19 47 0,0
10.11.2018 13:00:00 19,7 8,4 8 5 13 7 NE 1015,8 19 12 -
10.11.2018 12:00:00 20,7 8,4 6 3 11 6 E 1016,5 14 52 0,0
10.11.2018 11:00:00 21,3 7,6 4 2 9 5 S 1017,2 16 60 0,0
10.11.2018 10:00:00 19,3 8,9 4 2 11 6 SW 1017,2 20 60 0,0
10.11.2018 09:00:00 14,7 8,4 5 3 12 6 W 1017,3 18 29 0,0
10.11.2018 08:00:00 10,9 6,7 6 3 12 7 SW 1016,6 16 0 0,0
10.11.2018 07:00:00 12,3 6,5 7 4 12 7 W 1016,7 17 0 -
10.11.2018 06:00:00 12,4 6,4 5 3 10 5 WSW 1016,8 18 0 0,0
10.11.2018 05:00:00 12,0 6,2 4 2 8 5 SW 1017,1 16 0 0,0
10.11.2018 04:00:00 13,2 4,8 6 4 12 6 W 1017,4 16 0 0,0
10.11.2018 03:00:00 14,4 4,3 6 3 16 9 W 1017,3 17 0 0,0
10.11.2018 02:00:00 14,9 3,6 8 4 30 16 W 1017,6 18 0 0,0
10.11.2018 01:00:00 15,6 2,5 14 8 39 21 WNW 1017,3 17 0 -
10.11.2018 00:00:00 16,1 1,5 19 10 41 22 WNW 1017,5 19 0 0,0
09.11.2018 23:00:00 - - - - - - - - - - -
09.11.2018 22:00:00 14,4 0,9 14 8 33 18 W 1018,3 19 0 0,0
09.11.2018 21:00:00 14,3 1,9 13 7 26 14 W 1018,2 18 0 0,0
09.11.2018 20:00:00 14,1 2,7 11 6 20 11 W 1018,1 17 0 0,0
09.11.2018 19:00:00 13,9 3,4 9 5 18 10 W 1017,4 17 0 -
09.11.2018 18:00:00 15,7 3,2 7 4 33 18 W 1016,7 19 29 0,0
09.11.2018 17:00:00 18,6 2,1 13 7 31 17 W 1016,2 19 60 0,0
09.11.2018 16:00:00 19,4 2,7 16 9 37 20 W 1015,8 19 60 0,0
09.11.2018 15:00:00 19,1 2,5 22 12 42 23 WNW 1015,8 18 60 0,0
09.11.2018 14:00:00 19,1 2,9 17 9 42 23 W 1015,8 20 60 0,0
09.11.2018 13:00:00 18,5 2,7 17 9 43 23 WNW 1016,3 18 60 -
09.11.2018 12:00:00 17,3 2,5 22 12 55 30 WNW 1016,7 20 48 0,0
09.11.2018 11:00:00 16,4 2,5 29 15 51 28 WNW 1016,5 20 60 0,0
09.11.2018 10:00:00 15,4 2,5 22 12 54 29 W 1015,9 17 60 0,0
09.11.2018 09:00:00 14,5 2,7 27 14 53 29 W 1015,1 19 33 0,0
09.11.2018 08:00:00 13,1 2,9 16 9 42 23 W 1015,1 18 0 0,0
09.11.2018 07:00:00 13,7 3,2 15 8 39 21 W 1015,1 19 0 -
09.11.2018 06:00:00 14,1 4,3 19 10 37 20 WNW 1015,0 20 0 0,2
09.11.2018 05:00:00 14,7 5,0 5 3 22 12 WSW 1014,0 17 0 0,0
09.11.2018 04:00:00 14,9 7,0 15 8 29 16 W 1014,4 19 0 0,0
09.11.2018 03:00:00 14,6 9,6 10 6 18 10 WSW 1014,6 19 0 0,0
09.11.2018 02:00:00 15,5 11,9 8 5 31 17 W 1013,9 16 0 0,0
09.11.2018 01:00:00 17,2 11,0 13 7 25 14 W 1014,5 15 0 -
09.11.2018 00:00:00 17,0 12,3 11 6 36 19 SW 1014,7 15 0 0,0
08.11.2018 23:00:00 17,5 12,6 13 7 28 15 SW 1014,7 15 0 0,0
08.11.2018 22:00:00 17,2 12,5 11 6 27 14 S 1015,2 16 0 0,0
08.11.2018 21:00:00 16,6 12,1 9 5 19 11 S 1015,1 17 0 0,0
08.11.2018 20:00:00 16,7 12,0 12 6 21 11 SSW 1015,9 16 0 0,0
08.11.2018 19:00:00 16,9 12,2 9 5 21 11 S 1016,0 16 0 -
08.11.2018 18:00:00 17,0 12,3 10 5 22 12 S 1015,6 15 14 0,0
08.11.2018 17:00:00 19,6 12,3 11 6 28 15 S 1015,7 16 60 0,0
08.11.2018 16:00:00 21,1 12,7 13 7 24 13 SSW 1016,3 15 60 0,0
08.11.2018 15:00:00 22,1 12,1 14 7 24 13 S 1016,9 17 60 0,0
08.11.2018 14:00:00 21,8 11,8 14 8 25 13 S 1017,9 19 32 0,0
08.11.2018 13:00:00 21,5 13,2 9 5 18 10 S 1018,7 13 30 -

tt = temperature
td = dewpoint
ff = wind speed
fx = gusts
dd = wind direction
ppp = reduced air pressure
vv = visibility
sd = sunshine duration
rr = precipitation

Next stations